User: anonymous   Login
Location: Oshawa
(43.9000°N, 78.8670°W)
Time: 00:41:55
(UTC-04:00)
Language:

Altair - Orbit

View from above orbital plane
View from above orbital plane
View from above satellite
View from above satellite

Ground track
Ground track

The orbit data is extracted from the following two-line orbital elements,

1 00050U 60009B   14304.08541667 -.00000079  00000-0  58456-4 0  1316
2 00050 047.2335 023.4425 0113690 316.9343 042.2595 12.20085508419608
Epoch (UTC): 31 October 2014 02:03:00
Eccentricity: 0.0113690
inclination: 47.2335°
perigee height: 1501 km
apogee height: 1683 km
right ascension of ascending node: 23.4425°
argument of perigee: 316.9343°
revolutions per day: 12.20085508
mean anomaly at epoch: 42.2595°
orbit number at epoch: 41960

The dashed part of the orbit path shows where the satellite is in the earth's shadow,  

DLR